Wind_Speed
11 10 9 7 6 4 2 2 7 9 9 10 9 8 7 8 8 8 9 10 9 9 9 9 9 10 11 11 12 12 12 12 12 13 13 13 12 12 12 12 12 12 12 12 11 11 11 11 11
12 11 10 8 6 4 2 6 11 11 12 11 10 9 9 9 9 9 10 10 10 10 11 11 11 12 12 13 13 13 13 14 14 14 14 14 14 14 14 13 13 13 13 13 12 12 12 12 12
13 12 10 9 7 5 6 8 12 13 13 13 11 10 11 10 11 10 11 12 11 11 12 12 12 13 13 14 14 14 15 15 16 16 16 15 15 16 15 15 15 14 14 14 14 14 14 14 14
14 12 10 8 6 7 10 11 11 13 14 14 13 12 12 11 11 12 12 13 13 13 13 13 14 14 14 15 15 16 17 17 17 17 17 17 17 17 17 16 16 16 16 16 15 15 15 15 15
13 11 9 8 7 9 12 14 11 13 15 15 15 15 13 13 13 14 14 14 15 15 15 15 15 15 15 16 16 17 18 18 18 18 18 18 18 19 19 18 18 18 18 18 17 17 17 17 16
11 10 9 8 9 13 15 17 13 14 16 16 16 17 16 15 15 15 15 15 16 16 16 16 16 16 17 17 18 19 19 18 19 19 19 20 20 20 21 20 20 19 19 19 19 18 18 18 18
10 10 8 7 10 13 16 17 15 15 15 16 16 17 17 16 16 17 17 17 18 18 17 17 18 18 18 19 20 20 21 20 20 20 21 21 20 21 21 21 21 21 20 20 20 20 20 20 20
9 9 7 8 12 14 17 19 18 17 17 17 16 16 17 17 17 18 19 19 19 19 19 19 19 20 20 21 21 22 22 22 22 22 22 22 22 22 22 22 22 22 21 21 21 21 21 21 21
10 9 8 9 11 15 16 18 19 18 17 19 19 18 18 18 19 19 20 21 20 20 20 20 21 21 22 22 23 23 23 23 24 24 24 23 23 22 23 23 23 23 23 22 23 22 22 22 21
11 10 9 11 14 16 16 17 17 17 17 18 19 20 20 20 20 20 20 21 21 21 21 21 21 22 23 23 24 24 24 25 25 25 25 25 24 24 24 24 25 24 24 23 23 23 23 23 22
10 11 13 13 16 17 15 15 16 16 18 18 19 20 21 20 20 20 20 21 21 22 22 22 22 23 24 25 26 26 27 27 26 27 27 26 25 25 26 26 26 26 25 24 24 24 24 24 23
12 12 13 13 15 17 16 15 16 17 18 18 19 20 21 21 21 20 21 22 22 23 24 23 23 24 25 26 26 27 27 28 28 27 28 28 27 28 28 27 27 27 25 25 25 24 24 24 24
11 13 12 14 15 16 16 17 16 17 18 18 19 20 21 20 21 22 23 23 23 23 23 23 23 24 26 27 27 28 29 29 29 28 28 28 28 28 27 27 27 27 27 26 26 26 25 25 25
10 12 13 14 15 17 17 17 18 18 18 19 20 21 21 21 21 22 23 24 24 24 25 25 26 26 26 27 28 28 28 28 28 28 28 28 28 28 27 27 27 28 27 27 28 27 26 26 26
7 8 10 13 16 17 17 18 17 18 19 20 21 21 21 22 22 22 22 24 25 26 26 26 27 27 27 27 28 28 28 28 28 28 28 28 29 29 29 29 29 29 29 29 29 28 27 27 27
5 7 10 12 16 17 17 18 17 19 18 20 21 21 22 22 22 23 24 25 26 26 26 27 27 27 27 28 29 28 28 29 28 28 28 29 30 31 31 30 30 30 30 30 30 29 29 28 27
6 10 11 11 14 16 17 18 17 17 19 20 22 22 22 23 23 24 25 26 26 27 27 27 27 27 28 28 29 28 28 29 29 29 29 31 31 31 31 30 31 30 30 30 30 29 29 28 28
8 9 11 13 14 16 17 18 18 18 19 21 22 22 23 24 24 25 26 26 27 27 27 26 27 27 28 28 28 28 28 29 29 29 30 31 31 31 30 29 30 30 30 29 29 29 29 29 28
10 12 13 14 16 17 17 17 16 17 18 21 21 22 23 23 23 23 25 25 26 26 26 27 27 27 28 28 29 29 29 29 29 29 29 30 30 30 30 30 30 30 29 29 29 29 29 28 29
12 13 14 16 16 17 17 17 17 19 20 21 22 22 23 22 23 24 25 25 26 26 26 27 27 28 29 29 29 30 29 29 29 29 29 30 30 30 30 30 30 30 29 29 28 28 29 28 29
12 12 13 16 16 15 16 19 18 18 20 22 21 22 23 25 24 25 26 25 25 25 25 26 27 28 27 28 28 29 29 29 30 29 29 29 29 30 30 30 30 30 29 29 29 29 29 29 30
12 13 15 17 17 16 16 18 18 18 19 21 21 23 23 24 24 25 26 25 25 24 24 26 27 27 26 27 27 28 28 29 29 29 28 28 29 30 30 30 30 30 30 29 29 29 30 30 30
14 15 15 15 16 16 16 18 19 20 20 22 22 24 24 26 26 25 25 25 24 23 24 25 25 26 26 27 27 27 28 28 28 28 28 29 30 30 30 30 29 29 30 29 29 29 29 29 29
15 15 14 14 15 15 17 18 20 21 20 23 24 25 26 26 26 24 24 25 24 24 24 24 24 25 25 25 26 26 28 27 26 27 28 28 29 29 29 29 28 28 29 29 28 28 28 29 29
16 15 15 15 14 14 16 19 19 20 20 22 24 26 26 25 25 24 25 24 25 25 24 24 24 24 24 24 25 26 26 25 25 27 27 28 28 29 28 28 28 28 28 29 28 28 28 29 29
13 14 15 17 16 15 16 18 16 17 19 21 24 25 26 25 24 25 26 25 25 25 24 23 23 24 24 24 24 24 25 26 26 27 27 27 28 28 28 28 27 27 27 27 27 27 28 29 29
15 14 15 18 17 17 16 18 16 16 19 22 24 25 26 26 25 25 25 25 25 25 24 24 24 24 24 24 24 24 25 26 27 27 27 28 28 28 28 27 26 26 26 26 25 25 26 26 27
14 13 15 15 18 19 17 17 18 20 22 24 24 25 26 26 26 25 25 25 25 24 23 23 23 23 22 23 24 24 24 25 26 26 27 27 27 27 27 26 25 25 25 24 25 25 25 25 26
14 14 16 17 17 19 20 19 19 20 22 23 23 24 25 26 25 25 24 24 24 23 22 22 22 22 23 23 23 24 25 25 25 25 26 26 26 26 26 24 24 24 23 24 24 25 26 26 26
14 16 17 18 19 19 20 20 19 21 23 23 24 25 26 26 25 24 23 23 23 22 22 21 21 22 22 23 23 24 24 24 24 24 24 24 25 25 24 24 24 24 23 24 25 26 26 25 26
Wind_Direction
212 208 205 199 190 186 185 266 257 262 263 261 260 264 271 274 277 284 289 295 303 304 302 300 303 306 310 311 312 313 312 310 308 304 299 297 296 293 290 289 290 291 289 288 286 284 284 283 281
212 209 207 201 193 189 231 263 258 258 262 265 268 273 275 275 279 285 288 293 297 298 300 300 301 304 307 308 308 309 308 306 304 301 298 296 296 294 292 291 291 291 290 288 287 286 285 282 280
210 208 205 206 208 197 238 246 256 256 258 265 269 271 275 280 283 286 290 292 295 297 297 299 300 302 304 305 306 307 306 304 302 300 298 297 296 295 294 293 292 292 291 290 287 287 286 286 282
209 210 206 210 209 231 247 248 249 260 261 263 269 273 280 281 283 290 293 294 293 297 297 299 297 299 301 304 305 306 305 303 301 299 298 298 296 294 293 294 292 292 292 291 289 288 286 285 283
209 207 210 222 232 246 255 257 254 257 262 265 268 273 278 280 285 290 294 294 294 295 297 298 298 298 299 302 304 304 304 303 300 298 297 297 296 295 294 292 291 292 291 290 290 289 286 284 283
205 202 209 219 239 255 258 257 260 263 267 266 269 270 275 282 283 287 292 293 293 293 295 296 297 298 299 301 301 301 301 300 299 298 296 295 295 294 293 291 289 289 289 289 288 288 287 284 283
202 196 201 229 246 254 260 264 265 262 267 270 271 273 276 280 281 286 290 292 291 292 294 295 293 296 297 299 300 299 297 296 297 297 295 294 294 294 291 291 290 288 287 287 287 287 286 284 283
195 202 202 234 243 251 260 264 264 265 268 270 275 277 281 280 284 286 288 291 291 289 291 293 293 294 295 298 299 299 297 296 297 296 294 293 293 293 292 292 291 288 285 285 285 286 285 282 281
193 203 215 231 242 253 258 261 264 265 271 273 274 277 282 283 283 284 286 289 290 291 290 292 293 295 297 298 299 297 295 297 297 296 295 293 292 293 294 292 291 288 285 285 286 285 284 281 280
200 207 224 232 237 248 255 259 263 265 267 271 277 282 281 283 283 283 284 287 288 293 292 291 293 295 297 298 298 298 296 298 297 295 296 294 293 295 294 292 291 291 289 286 286 287 284 282 283
214 226 231 236 243 248 253 260 263 268 271 272 275 278 282 284 282 281 282 286 289 291 293 291 294 297 298 299 299 298 296 296 296 295 295 294 295 297 297 295 293 292 291 289 287 286 287 284 284
229 239 237 250 255 255 259 264 266 271 274 277 278 279 284 287 284 284 285 285 289 290 291 292 294 297 299 299 298 297 298 298 297 296 296 295 296 296 295 294 293 292 291 291 289 289 290 286 284
240 254 257 262 259 261 267 270 274 277 278 277 278 280 283 284 283 283 285 286 288 288 290 292 296 297 298 297 297 297 298 299 298 298 298 296 295 295 294 293 294 293 291 288 288 289 289 287 284
244 253 261 266 271 268 273 277 281 282 279 280 283 284 285 287 285 285 286 286 287 288 290 291 295 297 297 296 296 297 298 298 299 300 300 299 297 294 293 293 293 292 291 290 288 287 286 286 285
254 268 274 276 276 274 274 277 280 279 280 283 285 285 285 286 287 286 287 287 287 289 290 291 292 294 295 294 295 296 296 298 299 301 301 300 296 294 294 292 292 290 289 290 288 288 287 286 285
281 281 277 275 279 282 279 275 279 278 283 285 286 287 285 286 287 288 288 288 288 289 290 290 291 292 293 293 294 295 295 297 299 300 301 299 297 296 295 293 292 291 289 289 288 287 287 285 284
265 268 269 268 275 276 276 277 282 283 286 288 290 289 289 288 288 288 289 287 287 288 289 289 290 292 293 294 295 295 296 297 298 298 299 297 295 296 296 295 294 293 291 290 288 288 286 285 285
247 258 266 268 268 275 276 275 278 282 286 289 291 291 290 290 288 288 289 288 289 289 289 288 290 290 291 293 295 296 296 297 297 296 296 296 295 296 297 297 296 294 292 291 288 288 287 286 285
254 259 263 268 271 272 277 282 279 282 287 288 290 292 292 292 291 289 290 289 289 288 286 288 289 289 290 292 294 295 297 297 296 296 295 295 296 297 297 297 297 295 294 291 288 288 287 286 285
272 267 268 271 274 278 280 284 288 287 290 292 293 293 293 290 291 294 297 294 291 290 288 287 288 289 290 292 294 295 297 297 297 296 297 296 297 298 297 296 296 295 293 292 289 287 286 286 285
274 275 272 274 274 276 281 282 281 281 284 290 292 294 295 296 295 295 296 297 295 292 291 291 291 292 291 293 295 297 297 297 299 299 298 297 297 298 297 296 296 295 294 291 288 286 287 287 287
282 278 275 277 278 279 279 277 276 277 284 285 290 294 294 294 295 296 296 297 296 294 295 294 294 293 291 292 296 299 299 299 299 299 299 299 300 299 300 298 295 295 294 292 290 288 288 288 289
279 279 284 285 284 283 283 283 280 283 284 288 292 293 293 296 299 300 300 299 299 298 298 296 297 294 293 294 296 298 298 299 299 299 300 300 302 303 302 301 298 297 297 295 292 290 288 288 290
291 290 287 287 289 287 285 284 281 282 284 286 291 297 295 297 299 301 300 299 300 297 299 300 297 296 296 296 298 298 300 300 300 301 302 302 303 304 303 302 300 299 298 297 293 290 290 290 290
292 296 295 295 296 289 289 283 280 284 287 290 296 300 302 301 302 302 302 300 300 300 297 300 302 299 299 300 301 302 302 302 303 303 303 304 305 305 303 302 301 300 297 296 293 291 290 290 291
301 301 301 298 295 295 296 289 285 292 293 293 296 297 299 302 302 302 302 302 301 302 301 301 302 302 302 302 303 304 304 304 304 304 305 307 306 305 305 302 301 300 299 297 293 293 292 292 292
303 298 298 298 304 301 300 300 298 290 293 293 293 293 298 300 299 300 300 301 301 301 302 302 301 301 300 302 303 305 306 306 306 305 307 308 309 309 307 305 304 303 301 298 295 295 296 294 294
303 306 302 301 303 302 300 295 290 287 289 290 289 292 296 298 300 300 301 301 299 299 300 300 300 301 304 304 303 304 307 307 307 307 308 309 310 311 310 307 305 303 302 301 300 299 299 298 296
301 301 300 300 299 297 298 299 297 292 292 294 293 294 296 297 297 298 300 300 300 299 300 301 301 301 301 302 305 304 306 307 307 308 309 310 312 313 312 309 307 307 305 304 305 303 302 301 299
308 303 305 305 305 301 299 300 302 298 297 296 295 296 296 296 298 300 301 300 300 301 303 303 301 300 302 303 306 309 308 309 309 311 312 314 313 314 315 312 310 309 307 306 307 305 303 301 300
Height
5886 5888 5889 5892 5895 5896 5897 5900 5900 5898 5898 5897 5897 5896 5896 5896 5897 5898 5896 5894 5894 5894 5893 5893 5892 5891 5891 5890 5889 5888 5887 5886 5885 5884 5883 5883 5882 5881 5880 5879 5878 5877 5876 5875 5875 5874 5873 5873 5872
5884 5886 5889 5891 5893 5895 5898 5900 5898 5897 5896 5895 5895 5895 5895 5894 5895 5895 5894 5893 5893 5893 5892 5891 5891 5890 5889 5888 5888 5887 5886 5884 5883 5882 5881 5880 5880 5879 5878 5877 5876 5875 5874 5873 5872 5872 5871 5870 5870
5882 5885 5888 5890 5892 5895 5897 5897 5896 5895 5894 5894 5894 5894 5894 5894 5893 5893 5892 5892 5892 5891 5891 5890 5889 5888 5888 5887 5886 5885 5883 5882 5881 5880 5879 5878 5877 5876 5876 5875 5874 5873 5872 5871 5870 5869 5869 5868 5867
5881 5884 5886 5890 5891 5894 5895 5894 5892 5893 5893 5892 5892 5892 5892 5891 5890 5891 5890 5890 5890 5890 5889 5888 5887 5887 5885 5884 5883 5882 5881 5880 5879 5878 5877 5876 5875 5874 5873 5872 5871 5870 5869 5868 5867 5866 5866 5865 5865
5879 5882 5886 5889 5891 5892 5892 5891 5891 5891 5891 5891 5891 5890 5889 5888 5888 5889 5888 5888 5888 5887 5887 5886 5885 5884 5883 5882 5881 5880 5879 5877 5876 5875 5874 5873 5872 5871 5870 5869 5868 5867 5866 5865 5864 5864 5863 5862 5861
5878 5881 5885 5888 5891 5891 5891 5889 5888 5889 5889 5888 5888 5888 5886 5886 5887 5887 5886 5885 5885 5885 5884 5883 5883 5882 5881 5879 5878 5877 5876 5874 5873 5872 5871 5870 5869 5868 5867 5866 5865 5863 5862 5862 5861 5860 5860 5859 5858
5878 5880 5883 5888 5890 5889 5889 5886 5887 5886 5886 5886 5885 5884 5884 5883 5884 5884 5883 5883 5882 5882 5881 5881 5880 5879 5878 5876 5874 5873 5872 5871 5870 5868 5868 5867 5865 5864 5863 5862 5861 5860 5859 5858 5857 5856 5856 5855 5854
5876 5880 5882 5886 5887 5887 5887 5885 5885 5884 5883 5882 5881 5881 5882 5881 5880 5881 5881 5880 5879 5878 5878 5878 5877 5876 5874 5873 5871 5869 5868 5867 5866 5865 5864 5863 5862 5860 5859 5858 5857 5855 5854 5854 5853 5852 5852 5851 5850
5875 5879 5881 5884 5885 5885 5884 5883 5882 5881 5880 5880 5879 5879 5878 5879 5879 5878 5878 5877 5877 5876 5875 5874 5873 5872 5871 5870 5868 5865 5864 5863 5862 5861 5859 5858 5857 5856 5855 5853 5852 5851 5850 5849 5848 5848 5847 5846 5846
5874 5877 5879 5880 5881 5880 5880 5880 5879 5879 5878 5877 5876 5877 5876 5876 5876 5875 5875 5874 5874 5873 5872 5871 5869 5868 5867 5866 5864 5861 5859 5858 5857 5856 5855 5854 5852 5851 5850 5848 5847 5846 5845 5844 5844 5843 5842 5841 5841
5872 5874 5876 5876 5876 5876 5876 5876 5876 5876 5876 5875 5874 5873 5873 5872 5872 5872 5871 5871 5870 5869 5868 5866 5865 5864 5863 5862 5860 5858 5856 5855 5853 5852 5851 5849 5847 5846 5845 5843 5842 5841 5840 5839 5838 5838 5837 5836 5836
5872 5872 5873 5873 5873 5874 5873 5874 5874 5873 5873 5872 5871 5869 5868 5868 5868 5868 5867 5867 5866 5866 5864 5863 5861 5860 5858 5857 5855 5853 5852 5850 5848 5847 5845 5843 5842 5841 5840 5838 5837 5836 5835 5834 5833 5832 5831 5831 5830
5871 5871 5871 5872 5872 5872 5870 5870 5870 5870 5870 5869 5868 5867 5866 5866 5865 5865 5864 5863 5862 5861 5860 5859 5857 5856 5854 5852 5850 5849 5847 5845 5844 5842 5840 5838 5837 5836 5834 5833 5831 5830 5829 5828 5827 5827 5826 5825 5825
5869 5869 5870 5870 5869 5869 5869 5868 5867 5867 5866 5866 5865 5863 5862 5862 5862 5861 5860 5859 5858 5857 5856 5855 5853 5852 5850 5848 5846 5844 5842 5840 5839 5837 5835 5833 5832 5830 5829 5827 5826 5825 5823 5822 5821 5821 5820 5819 5819
5866 5868 5868 5868 5867 5867 5867 5866 5865 5865 5863 5863 5862 5860 5859 5859 5858 5857 5856 5855 5854 5853 5851 5850 5849 5847 5845 5844 5842 5840 5837 5835 5834 5832 5830 5828 5826 5825 5823 5821 5820 5818 5817 5815 5815 5814 5813 5812 5812
5865 5866 5867 5867 5866 5865 5866 5864 5862 5861 5860 5859 5858 5857 5856 5855 5854 5852 5851 5851 5849 5848 5846 5845 5844 5842 5840 5838 5836 5835 5833 5831 5829 5827 5825 5823 5821 5818 5817 5815 5813 5811 5810 5809 5808 5807 5806 5805 5805
5865 5866 5866 5866 5865 5864 5863 5861 5859 5858 5857 5856 5855 5854 5852 5851 5850 5848 5847 5845 5844 5843 5841 5840 5838 5837 5835 5833 5831 5829 5828 5826 5823 5821 5819 5817 5815 5813 5811 5809 5807 5805 5803 5802 5801 5800 5799 5798 5798
5862 5863 5863 5863 5862 5861 5859 5857 5857 5855 5854 5853 5852 5850 5848 5847 5845 5843 5842 5840 5838 5837 5836 5834 5833 5831 5829 5828 5826 5824 5822 5820 5818 5816 5814 5811 5809 5807 5805 5803 5801 5799 5797 5795 5794 5793 5792 5791 5790
5860 5860 5860 5860 5859 5857 5855 5854 5853 5852 5851 5850 5848 5846 5844 5842 5840 5838 5837 5835 5833 5832 5831 5829 5828 5826 5824 5823 5821 5819 5816 5814 5812 5810 5808 5806 5804 5801 5799 5797 5795 5793 5791 5789 5787 5786 5785 5784 5783
5858 5857 5857 5857 5856 5854 5851 5851 5849 5848 5847 5845 5844 5842 5840 5837 5835 5833 5831 5830 5828 5827 5825 5823 5822 5821 5819 5817 5815 5813 5811 5808 5806 5804 5802 5800 5798 5795 5793 5790 5788 5786 5784 5782 5780 5779 5778 5777 5776
5855 5854 5853 5852 5851 5850 5849 5848 5846 5845 5843 5841 5839 5837 5835 5833 5830 5829 5826 5824 5823 5821 5820 5818 5816 5815 5812 5811 5808 5807 5804 5802 5800 5798 5796 5794 5791 5789 5786 5784 5781 5779 5777 5775 5773 5772 5771 5770 5768
5851 5851 5849 5848 5847 5847 5847 5845 5842 5841 5839 5837 5835 5833 5831 5828 5826 5823 5822 5820 5818 5816 5814 5813 5810 5808 5806 5805 5803 5800 5798 5796 5794 5792 5790 5787 5784 5782 5779 5776 5774 5771 5769 5767 5766 5765 5763 5762 5760
5847 5846 5845 5845 5844 5843 5843 5841 5840 5837 5834 5833 5831 5829 5826 5824 5821 5819 5817 5815 5813 5811 5809 5807 5804 5802 5800 5798 5797 5794 5792 5790 5788 5786 5784 5781 5778 5775 5772 5769 5767 5764 5762 5760 5759 5757 5756 5754 5753
5843 5843 5841 5841 5840 5839 5839 5837 5835 5833 5829 5828 5825 5824 5822 5819 5816 5814 5813 5810 5808 5806 5804 5801 5799 5797 5795 5793 5791 5788 5786 5784 5782 5779 5777 5774 5771 5768 5765 5763 5760 5758 5756 5753 5751 5750 5748 5747 5745
5840 5839 5838 5836 5836 5836 5835 5832 5830 5827 5825 5824 5821 5819 5817 5814 5812 5810 5808 5806 5803 5801 5798 5797 5795 5792 5790 5788 5785 5783 5781 5778 5776 5773 5771 5768 5765 5762 5759 5756 5754 5751 5749 5746 5744 5743 5741 5739 5738
5837 5836 5835 5833 5831 5830 5830 5827 5826 5822 5822 5820 5817 5814 5812 5810 5808 5806 5804 5801 5799 5797 5793 5791 5790 5787 5785 5783 5780 5778 5775 5773 5770 5768 5765 5762 5759 5756 5752 5750 5747 5744 5742 5740 5738 5736 5734 5732 5730
5834 5833 5832 5830 5828 5827 5826 5823 5821 5818 5817 5815 5812 5809 5807 5806 5803 5801 5799 5796 5794 5791 5789 5787 5785 5783 5781 5778 5775 5773 5770 5768 5765 5762 5759 5756 5753 5750 5747 5744 5741 5738 5736 5733 5731 5729 5727 5725 5723
5832 5830 5829 5827 5825 5823 5822 5821 5818 5815 5814 5811 5808 5805 5803 5801 5799 5796 5794 5791 5789 5787 5785 5783 5780 5778 5776 5774 5771 5768 5765 5762 5760 5757 5754 5751 5747 5744 5741 5738 5735 5733 5730 5727 5725 5723 5720 5718 5716
5830 5828 5825 5823 5821 5819 5817 5819 5813 5811 5809 5806 5803 5800 5798 5795 5793 5791 5789 5787 5783 5781 5779 5778 5776 5774 5771 5769 5766 5763 5760 5757 5755 5752 5749 5745 5742 5739 5736 5733 5730 5727 5724 5722 5719 5716 5714 5711 5709
5825 5824 5822 5820 5817 5815 5813 5814 5809 5806 5803 5801 5798 5795 5792 5790 5788 5786 5783 5781 5779 5776 5774 5772 5770 5768 5766 5763 5761 5758 5755 5752 5750 5747 5744 5741 5738 5735 5731 5728 5725 5722 5719 5716 5713 5710 5707 5705 5702